EW1714 Weather Reports


Display with metric or nautical units.
time (UTC)temp
F
wind
direction
speed
MPH
gust
MPH
rain 1hr
in
rain 24hr
in
rain mn
in
humidity
%
barometer
mb
20260905184009 74 14 0.0 0.0 0.00 0.00 0.00 70 1011.0
20260905183512 74 14 0.0 1.0 0.00 0.00 0.00 69 1011.0
20260905183027 74 14 0.0 2.0 0.00 0.00 0.00 68 1011.1
20260905182514 74 34 0.0 3.0 0.00 0.00 0.00 68 1011.1
20260905182015 74 34 0.0 4.0 0.00 0.00 0.00 67 1011.1
20260905181527 75 51 0.0 7.0 0.00 0.00 0.00 66 1011.1
20260905181005 76 359 1.0 7.0 0.00 0.00 0.00 64 1011.1
20260905180506 76 21 0.0 5.0 0.00 0.00 0.00 63 1011.1
20260905180010 76 4 0.0 7.0 0.00 0.00 0.00 63 1011.0
20260905175506 77 338 0.0 8.0 0.00 0.00 0.00 61 1011.0
20260905175005 77 16 0.0 8.0 0.00 0.00 0.00 61 1010.9
20260905174520 77 360 1.0 5.0 0.00 0.00 0.00 61 1010.9
20260905174011 76 335 0.0 3.0 0.00 0.00 0.00 63 1010.8
20260905173510 76 360 0.0 3.0 0.00 0.00 0.00 66 1010.8
20260905173030 76 1 0.0 0.0 0.00 0.00 0.00 64 1010.8
20260905172511 76 1 0.0 5.0 0.00 0.00 0.00 63 1010.8
20260905172014 77 1 0.0 5.0 0.00 0.00 0.00 62 1010.7
20260905171526 77 349 0.0 7.0 0.00 0.00 0.00 61 1010.6
20260905171015 78 6 1.0 7.0 0.00 0.00 0.00 61 1010.6
20260905170515 77 356 0.0 6.0 0.00 0.00 0.00 62 1010.6
20260905170029 77 1 1.0 6.0 0.00 0.00 0.00 65 1010.6
20260905165514 76 41 0.0 4.0 0.00 0.00 0.00 67 1010.6
20260905165006 75 32 0.0 4.0 0.00 0.00 0.00 66 1010.7
20260905164532 75 343 0.0 2.0 0.00 0.00 0.00 66 1010.7
20260905164008 75 64 0.0 7.0 0.00 0.00 0.00 66 1010.6
20260905163508 75 8 1.0 8.0 0.00 0.00 0.00 67 1010.6
20260905163025 75 330 0.0 8.0 0.00 0.00 0.00 69 1010.6
20260905162516 74 359 0.0 6.0 0.00 0.00 0.00 68 1010.8
20260905162011 74 345 1.0 7.0 0.00 0.00 0.00 67 1010.8
20260905161527 74 359 2.0 8.0 0.00 0.00 0.00 67 1010.8
20260905161013 74 357 2.0 8.0 0.00 0.00 0.00 67 1010.8
20260905160514 75 360 1.0 7.0 0.00 0.00 0.00 65 1010.9
20260905160030 75 359 2.0 7.0 0.00 0.00 0.00 64 1010.9
20260905155516 75 1 0.0 4.0 0.00 0.00 0.00 67 1010.9
20260905155013 75 22 0.0 0.0 0.00 0.00 0.00 69 1010.9
20260905154531 75 21 0.0 1.0 0.00 0.00 0.00 69 1010.9
20260905154016 75 21 0.0 6.0 0.00 0.00 0.00 67 1011.0
20260905153508 76 27 0.0 6.0 0.00 0.00 0.00 67 1011.0
20260905153018 76 31 1.0 6.0 0.00 0.00 0.00 67 1011.0
20260905152507 76 360 0.0 6.0 0.00 0.00 0.00 67 1010.9
20260905152010 76 56 1.0 6.0 0.00 0.00 0.00 71 1010.9
20260905151523 75 29 0.0 7.0 0.00 0.00 0.00 70 1011.0
20260905151011 75 55 1.0 7.0 0.00 0.00 0.00 70 1011.0
20260905150512 74 8 0.0 5.0 0.00 0.00 0.00 73 1010.9
20260905150028 73 359 0.0 3.0 0.00 0.00 0.00 75 1010.9
20260905145515 72 342 0.0 4.0 0.00 0.00 0.00 77 1010.9
20260905145016 71 341 0.0 4.0 0.00 0.00 0.00 77 1011.0
20260905144530 71 342 0.0 3.0 0.00 0.00 0.00 78 1011.1
20260905144014 70 359 0.0 4.0 0.00 0.00 0.00 78 1011.1
20260905143517 70 359 0.0 4.0 0.00 0.00 0.00 79 1011.1
20260905143033 70 1 0.0 3.0 0.00 0.00 0.00 79 1011.1
20260905142518 70 11 0.0 2.0 0.00 0.00 0.00 80 1011.1
20260905142020 69 11 0.0 2.0 0.00 0.00 0.00 80 1011.1
20260905141516 69 11 0.0 3.0 0.00 0.00 0.00 80 1011.2
20260905141010 69 11 0.0 3.0 0.00 0.00 0.00 79 1011.2
20260905140513 69 1 0.0 0.0 0.00 0.00 0.00 80 1011.2
20260905140026 69 348 0.0 0.0 0.00 0.00 0.00 80 1011.2
20260905135513 69 348 0.0 0.0 0.00 0.00 0.00 80 1011.1
20260905135012 69 360 0.0 7.0 0.00 0.00 0.00 80 1011.1
20260905134529 69 360 0.0 8.0 0.00 0.00 0.00 80 1011.0
20260905134015 69 311 1.0 8.0 0.00 0.00 0.00 82 1011.0
20260905133516 68 6 0.0 5.0 0.00 0.00 0.00 82 1010.9
20260905133030 68 360 0.0 5.0 0.00 0.00 0.00 84 1010.9
20260905132515 68 326 0.0 5.0 0.00 0.00 0.00 84 1010.9
20260905132016 67 342 0.0 5.0 0.00 0.00 0.00 85 1010.9
20260905131525 67 27 0.0 5.0 0.00 0.00 0.00 85 1010.8
20260905131011 67 359 0.0 4.0 0.00 0.00 0.00 86 1010.7
20260905130506 67 359 0.0 4.0 0.00 0.00 0.00 87 1010.6
20260905130014 66 348 0.0 3.0 0.00 0.00 0.00 88 1010.5
20260905125508 66 4 0.0 2.0 0.00 0.00 0.00 88 1010.5
20260905125008 66 4 0.0 3.0 0.00 0.00 0.00 89 1010.5
20260905124528 65 4 0.0 3.0 0.00 0.00 0.00 90 1010.4
20260905124003 65 5 0.0 0.0 0.00 0.00 0.00 91 1010.4
20260905123504 64 5 0.0 2.0 0.00 0.00 0.00 91 1010.3
20260905123004 64 1 0.0 2.0 0.00 0.00 0.00 92 1010.2
20260905122504 64 1 0.0 0.0 0.00 0.00 0.00 92 1010.2
20260905122003 63 1 0.0 2.0 0.00 0.00 0.00 93 1010.1
20260905121522 63 1 0.0 2.0 0.00 0.00 0.00 93 1010.1
20260905121010 63 1 0.0 2.0 0.00 0.00 0.00 93 1010.0
20260905120511 62 1 0.0 1.0 0.00 0.00 0.00 94 1010.0
20260905120012 62 1 0.0 0.0 0.00 0.00 0.00 94 1010.1
20260905115508 62 1 0.0 0.0 0.00 0.00 0.00 94 1010.0
20260905115013 62 1 0.0 0.0 0.00 0.00 0.00 95 1009.9
20260905114531 61 1 0.0 0.0 0.00 0.00 0.00 95 1009.9
20260905114008 61 1 0.0 0.0 0.00 0.00 0.00 95 1009.9
20260905113508 61 1 0.0 0.0 0.00 0.00 0.00 95 1009.8
20260905113015 61 1 0.0 0.0 0.00 0.00 0.00 94 1009.8
20260905112504 60 1 0.0 0.0 0.00 0.00 0.00 94 1009.9
20260905112003 60 1 0.0 0.0 0.00 0.00 0.00 94 1009.9
20260905111510 60 1 0.0 0.0 0.00 0.00 0.00 94 1009.8
20260905111004 60 1 0.0 0.0 0.00 0.00 0.00 94 1009.8
20260905110504 60 1 0.0 0.0 0.00 0.00 0.00 94 1009.7
20260905110015 60 1 0.0 0.0 0.00 0.00 0.00 94 1009.8
20260905105508 60 1 0.0 0.0 0.00 0.00 0.00 94 1009.7
20260905105008 60 1 0.0 0.0 0.00 0.00 0.00 94 1009.6
20260905104515 60 1 0.0 0.0 0.00 0.00 0.00 94 1009.6
20260905104010 60 1 0.0 0.0 0.00 0.00 0.00 93 1009.5
20260905103512 60 1 0.0 0.0 0.00 0.00 0.00 93 1009.6
20260905103028 60 1 0.0 0.0 0.00 0.00 0.00 93 1009.6
20260905102510 60 1 0.0 0.0 0.00 0.00 0.00 93 1009.6
20260905102010 60 1 0.0 0.0 0.00 0.00 0.00 93 1009.6
20260905101526 60 1 0.0 0.0 0.00 0.00 0.00 93 1009.6
20260905101008 60 1 0.0 0.0 0.00 0.00 0.00 93 1009.6
20260905100504 60 1 0.0 0.0 0.00 0.00 0.00 93 1009.5
20260905100010 60 1 0.0 0.0 0.00 0.00 0.00 93 1009.6
20260905095510 60 1 0.0 0.0 0.00 0.00 0.00 93 1009.4
20260905095006 60 1 0.0 0.0 0.00 0.00 0.00 93 1009.4
20260905094514 60 1 0.0 0.0 0.00 0.00 0.00 93 1009.4
20260905094013 60 1 0.0 0.0 0.00 0.00 0.00 93 1009.3
20260905093510 60 1 0.0 0.0 0.00 0.00 0.00 93 1009.3
20260905093020 60 1 0.0 0.0 0.00 0.00 0.00 93 1009.3
20260905092510 60 1 0.0 0.0 0.00 0.00 0.00 92 1009.2
20260905092013 60 1 0.0 0.0 0.00 0.00 0.00 92 1009.2
20260905091519 60 1 0.0 0.0 0.00 0.00 0.00 92 1009.2
20260905091015 60 1 0.0 0.0 0.00 0.00 0.00 92 1009.2
20260905090510 60 1 0.0 0.0 0.00 0.00 0.00 92 1009.2
20260905090032 60 1 0.0 0.0 0.00 0.00 0.00 92 1009.1
20260905085515 60 1 0.0 0.0 0.00 0.00 0.00 92 1009.1
20260905085005 60 1 0.0 0.0 0.00 0.00 0.00 92 1009.1
20260905084530 60 1 0.0 0.0 0.00 0.00 0.00 92 1009.1
20260905084006 60 1 0.0 0.0 0.00 0.00 0.00 92 1009.0
20260905083505 60 1 0.0 0.0 0.00 0.00 0.00 92 1009.0
20260905083020 60 1 0.0 0.0 0.00 0.00 0.00 92 1009.0
20260905082510 60 1 0.0 0.0 0.00 0.00 0.00 92 1009.0
20260905082012 60 1 0.0 0.0 0.00 0.00 0.00 92 1009.0
20260905081525 60 1 0.0 0.0 0.00 0.00 0.00 92 1009.0
20260905081012 60 1 0.0 0.0 0.00 0.00 0.00 92 1009.0
20260905080512 60 1 0.0 0.0 0.00 0.00 0.00 92 1009.1
20260905080027 60 1 0.0 0.0 0.00 0.00 0.00 92 1009.1
20260905075515 60 1 0.0 0.0 0.00 0.00 0.00 91 1009.0
20260905075016 61 1 0.0 0.0 0.00 0.00 0.00 91 1009.1
20260905074528 61 1 0.0 0.0 0.00 0.00 0.00 91 1009.2
20260905074012 61 1 0.0 0.0 0.00 0.00 0.00 90 1009.2
20260905073513 61 1 0.0 0.0 0.00 0.00 0.00 90 1009.2
20260905073027 61 1 0.0 0.0 0.00 0.00 0.00 90 1009.2
20260905072507 61 1 0.0 0.0 0.00 0.00 0.00 90 1009.2
20260905072010 61 1 0.0 0.0 0.00 0.00 0.00 90 1009.2
20260905071739 61 1 0.0 0.0 0.00 0.00 0.00 90 1009.2
20260905071011 61 1 0.0 0.0 0.00 0.00 0.00 90 1009.3
20260905070513 61 1 0.0 0.0 0.00 0.00 0.00 90 1009.2
20260905070029 61 1 0.0 0.0 0.00 0.00 0.00 90 1009.3
20260905065514 62 1 0.0 0.0 0.00 0.00 0.00 90 1009.4
20260905065014 62 1 0.0 0.0 0.00 0.00 0.00 90 1009.5
20260905064505 62 1 0.0 0.0 0.00 0.00 0.00 89 1009.5
20260905064005 62 1 0.0 0.0 0.00 0.00 0.00 89 1009.5
20260905063504 62 1 0.0 0.0 0.00 0.00 0.00 89 1009.5
20260905063011 62 1 0.0 0.0 0.00 0.00 0.00 89 1009.5
20260905062509 62 1 0.0 0.0 0.00 0.00 0.00 89 1009.5
20260905062008 62 1 0.0 0.0 0.00 0.00 0.00 89 1009.6
20260905061517 62 1 0.0 0.0 0.00 0.00 0.00 88 1009.5
20260905061008 62 1 0.0 0.0 0.00 0.00 0.00 88 1009.6
20260905060508 62 1 0.0 0.0 0.00 0.00 0.00 88 1009.7
20260905060031 62 1 0.0 0.0 0.00 0.00 0.00 88 1009.7
20260905055504 62 1 0.0 0.0 0.00 0.00 0.00 88 1009.7
20260905055007 62 1 0.0 0.0 0.00 0.00 0.00 88 1009.7
20260905054506 62 1 0.0 0.0 0.00 0.00 0.00 88 1009.7
20260905054005 62 1 0.0 0.0 0.00 0.00 0.00 88 1009.8
20260905053503 62 1 0.0 0.0 0.00 0.00 0.00 88 1009.8
20260905053007 63 1 0.0 0.0 0.00 0.00 0.00 88 1009.9
20260905052505 63 1 0.0 0.0 0.00 0.00 0.00 88 1009.9
20260905052006 63 1 0.0 0.0 0.00 0.00 0.00 88 1009.9
20260905051528 63 1 0.0 0.0 0.00 0.00 0.00 88 1009.9
20260905051010 63 1 0.0 0.0 0.00 0.00 0.00 87 1010.0
20260905050508 63 1 0.0 0.0 0.00 0.00 0.00 87 1010.1
20260905050021 63 1 0.0 0.0 0.00 0.00 0.00 87 1010.1
20260905045509 63 1 0.0 0.0 0.00 0.00 0.00 87 1010.1
20260905045011 63 1 0.0 0.0 0.00 0.00 0.00 87 1010.1
20260905044525 63 1 0.0 0.0 0.00 0.00 0.00 87 1009.9
20260905044013 63 1 0.0 0.0 0.00 0.00 0.00 86 1009.8
20260905043503 64 1 0.0 0.0 0.00 0.00 0.00 86 1009.7
20260905043009 64 1 0.0 0.0 0.00 0.00 0.00 86 1009.7
20260905042507 64 1 0.0 0.0 0.00 0.00 0.00 85 1009.7
20260905042006 64 1 0.0 0.0 0.00 0.00 0.00 85 1009.8
20260905041509 64 1 0.0 0.0 0.00 0.00 0.00 85 1009.8
20260905041017 64 1 0.0 0.0 0.00 0.00 0.00 84 1009.9
20260905040507 65 1 0.0 0.0 0.00 0.00 0.00 84 1009.9
20260905040015 65 1 0.0 0.0 0.00 0.00 0.00 84 1009.9
20260905035509 65 1 0.0 0.0 0.00 0.00 0.00 84 1009.8
20260905035010 65 1 0.0 0.0 0.00 0.00 0.00 84 1009.7
20260905034529 65 1 0.0 0.0 0.00 0.00 0.00 83 1009.7
20260905034011 65 1 0.0 0.0 0.00 0.00 0.00 83 1009.8
20260905033510 65 1 0.0 0.0 0.00 0.00 0.00 83 1009.8
20260905033028 66 1 0.0 0.0 0.00 0.00 0.00 82 1009.9
20260905032512 66 1 0.0 0.0 0.00 0.00 0.00 82 1009.9
20260905032004 66 1 0.0 0.0 0.00 0.00 0.00 82 1009.9
20260905031506 66 1 0.0 0.0 0.00 0.00 0.00 82 1010.0
20260905031005 67 1 0.0 0.0 0.00 0.00 0.00 81 1009.9
20260905030503 67 1 0.0 0.0 0.00 0.00 0.00 81 1009.9
20260905030023 67 1 0.0 0.0 0.00 0.00 0.00 80 1009.9
20260905025507 67 1 0.0 0.0 0.00 0.00 0.00 80 1010.0
20260905025008 67 1 0.0 0.0 0.00 0.00 0.00 80 1009.9
20260905024517 67 1 0.0 0.0 0.00 0.00 0.00 78 1009.9
20260905024013 67 1 0.0 0.0 0.00 0.00 0.00 78 1009.9
20260905023511 68 1 0.0 0.0 0.00 0.00 0.00 78 1010.0
20260905023031 68 1 0.0 0.0 0.00 0.00 0.00 78 1010.0
20260905022512 68 1 0.0 0.0 0.00 0.00 0.00 78 1010.0
20260905022015 68 1 0.0 0.0 0.00 0.00 0.00 77 1010.0
20260905021531 69 1 0.0 0.0 0.00 0.00 0.00 77 1010.0
20260905021014 69 1 0.0 0.0 0.00 0.00 0.00 77 1010.2
20260905020516 69 1 0.0 0.0 0.00 0.00 0.00 76 1010.2
20260905020007 69 1 0.0 0.0 0.00 0.00 0.00 75 1010.2
20260905015506 69 1 0.0 0.0 0.00 0.00 0.00 74 1010.1
20260905015008 69 1 0.0 0.0 0.00 0.00 0.00 71 1010.2
20260905014515 70 1 0.0 0.0 0.00 0.00 0.00 71 1010.2
20260905014008 70 1 0.0 0.0 0.00 0.00 0.00 71 1010.2
20260905013510 70 1 0.0 0.0 0.00 0.00 0.00 71 1010.3
20260905013020 70 1 0.0 0.0 0.00 0.00 0.00 70 1010.3
20260905012512 70 1 0.0 0.0 0.00 0.00 0.00 70 1010.4
20260905012012 70 1 0.0 0.0 0.00 0.00 0.00 69 1010.4
20260905011528 71 359 0.0 0.0 0.00 0.00 0.00 69 1010.4
20260905011012 71 359 0.0 0.0 0.00 0.00 0.00 69 1010.4
20260905010514 71 359 0.0 0.0 0.00 0.00 0.00 69 1010.3
20260905010028 72 359 0.0 0.0 0.00 0.00 0.00 69 1010.3
20260905005518 72 359 0.0 0.0 0.00 0.00 0.00 67 1010.4
20260905005015 72 359 0.0 0.0 0.00 0.00 0.00 67 1010.4
20260905004511 72 359 0.0 0.0 0.00 0.00 0.00 66 1010.3
20260905004004 73 359 0.0 0.0 0.00 0.00 0.00 65 1010.2
20260905003508 73 359 0.0 0.0 0.00 0.00 0.00 64 1010.2
20260905003017 73 359 0.0 2.0 0.00 0.00 0.00 64 1010.2
20260905002507 73 359 0.0 7.0 0.00 0.00 0.00 63 1010.2
20260905002012 73 346 0.0 7.0 0.00 0.00 0.00 63 1010.2
20260905001524 73 68 0.0 0.0 0.00 0.00 0.00 63 1010.2
20260905001013 73 72 0.0 0.0 0.00 0.00 0.00 64 1010.2
20260905000513 74 328 0.0 0.0 0.00 0.00 0.00 64 1010.2
20260905000033 74 328 0.0 0.0 0.00 0.00 0.00 64 1010.1
20260904235516 74 328 0.0 0.0 0.00 0.00 0.00 63 1010.2
20260904235018 74 328 0.0 0.0 0.00 0.00 0.00 63 1010.1
20260904234539 75 328 0.0 0.0 0.00 0.00 0.00 63 1010.0
20260904234020 75 328 0.0 0.0 0.00 0.00 0.00 62 1009.9
20260904233517 75 328 0.0 0.0 0.00 0.00 0.00 61 1009.9
20260904233050 76 328 0.0 0.0 0.00 0.00 0.00 60 1009.9
20260904232510 76 328 0.0 0.0 0.00 0.00 0.00 60 1009.8
20260904232010 76 329 0.0 0.0 0.00 0.00 0.00 59 1009.7
20260904231535 76 329 0.0 0.0 0.00 0.00 0.00 59 1009.6
20260904231009 77 329 0.0 0.0 0.00 0.00 0.00 58 1009.6
20260904230513 77 329 0.0 0.0 0.00 0.00 0.00 57 1009.4
20260904230031 77 328 0.0 2.0 0.00 0.00 0.00 58 1009.5
20260904225515 77 328 0.0 2.0 0.00 0.00 0.00 57 1009.4
20260904225020 78 211 0.0 0.0 0.00 0.00 0.00 57 1009.5
20260904224540 78 211 0.0 1.0 0.00 0.00 0.00 56 1009.5
20260904224015 78 211 0.0 1.0 0.00 0.00 0.00 55 1009.4
20260904223515 78 345 0.0 8.0 0.00 0.00 0.00 57 1009.5
20260904223040 78 345 1.0 8.0 0.00 0.00 0.00 55 1009.4
20260904222515 79 211 0.0 5.0 0.00 0.00 0.00 55 1009.5
20260904222015 79 12 0.0 7.0 0.00 0.00 0.00 55 1009.4
20260904221537 79 359 1.0 7.0 0.00 0.00 0.00 55 1009.3
20260904221010 79 338 0.0 1.0 0.00 0.00 0.00 54 1009.3
20260904220511 80 339 0.0 8.0 0.00 0.00 0.00 54 1009.3
20260904220024 80 184 0.0 8.0 0.00 0.00 0.00 53 1009.2
20260904215513 80 6 1.0 6.0 0.00 0.00 0.00 53 1009.2
20260904215014 80 360 0.0 7.0 0.00 0.00 0.00 53 1009.2
20260904214513 80 81 0.0 7.0 0.00 0.00 0.00 53 1009.2
20260904214007 80 56 0.0 8.0 0.00 0.00 0.00 53 1009.3
20260904213502 81 247 0.0 8.0 0.00 0.00 0.00 53 1009.3
20260904213007 81 75 0.0 0.0 0.00 0.00 0.00 52 1009.3
20260904212514 81 4 0.0 0.0 0.00 0.00 0.00 52 1009.3
20260904212006 81 359 0.0 0.0 0.00 0.00 0.00 54 1009.3
20260904211515 82 356 0.0 0.0 0.00 0.00 0.00 53 1009.3
20260904211021 82 355 0.0 0.0 0.00 0.00 0.00 52 1009.4
20260904210520 82 336 0.0 0.0 0.00 0.00 0.00 52 1009.4
20260904210003 82 1 0.0 4.0 0.00 0.00 0.00 52 1009.3
20260904205503 83 1 0.0 4.0 0.00 0.00 0.00 50 1009.3
20260904205002 83 81 0.0 0.0 0.00 0.00 0.00 51 1009.2
20260904204503 83 359 0.0 7.0 0.00 0.00 0.00 52 1009.2
20260904204004 83 356 0.0 7.0 0.00 0.00 0.00 53 1009.1
20260904203504 83 321 0.0 8.0 0.00 0.00 0.00 53 1009.3
20260904203032 83 351 2.0 8.0 0.00 0.00 0.00 53 1009.4
20260904202503 83 128 0.0 5.0 0.00 0.00 0.00 52 1009.3
20260904202004 84 16 0.0 7.0 0.00 0.00 0.00 51 1009.3
20260904201510 84 7 3.0 7.0 0.00 0.00 0.00 51 1009.3
20260904201004 85 360 0.0 9.0 0.00 0.00 0.00 50 1009.3
20260904200507 85 314 3.0 9.0 0.00 0.00 0.00 51 1009.4
20260904200025 85 289 0.0 10.0 0.00 0.00 0.00 51 1009.3
20260904195514 84 326 2.0 11.0 0.00 0.00 0.00 50 1009.3
20260904195002 85 359 4.0 11.0 0.00 0.00 0.00 48 1009.4
20260904194504 85 311 0.0 4.0 0.00 0.00 0.00 48 1009.3
20260904194003 86 266 0.0 6.0 0.00 0.00 0.00 45 1009.2
20260904193504 86 14 0.0 6.0 0.00 0.00 0.00 45 1009.1
20260904193005 87 331 0.0 7.0 0.00 0.00 0.00 44 1009.1
20260904192507 88 179 1.0 8.0 0.00 0.00 0.00 41 1009.0
20260904192004 89 1 1.0 8.0 0.00 0.00 0.00 43 1009.0
20260904191513 89 186 1.0 8.0 0.00 0.00 0.00 40 1009.0
20260904191004 90 105 0.0 9.0 0.00 0.00 0.00 40 1009.0
20260904190504 91 359 1.0 9.0 0.00 0.00 0.00 41 1009.0
20260904190013 91 1 1.0 5.0 0.00 0.00 0.00 40 1009.0
20260904185507 90 63 0.0 7.0 0.00 0.00 0.00 42 1009.1
20260904185007 90 359 0.0 9.0 0.00 0.00 0.00 41 1009.2
20260904184522 90 352 0.0 9.0 0.00 0.00 0.00 40 1009.1